Time,TemperatureF,DewpointF,PressureIn,WindDirection,WindDirectionDegrees,WindSpeedMPH,WindSpeedGustMPH,Humidity,HourlyPrecipIn,Conditions,Clouds,dailyrainin,SoftwareType,DateUTC
2013-03-03 00:02:00,36.0,30.0,30.02,West,267,0.0,-999.0,79,-99.99,,,-99.99,,2013-03-03 05:02:00,
2013-03-03 00:12:00,36.0,30.0,30.02,West,267,0.0,-999.0,79,-99.99,,,-99.99,,2013-03-03 05:12:00,
2013-03-03 00:22:00,35.0,30.0,30.02,West,267,0.0,-999.0,81,-99.99,,,-99.99,,2013-03-03 05:22:00,
2013-03-03 00:32:00,34.0,29.0,30.01,West,267,0.0,-999.0,82,-99.99,,,-99.99,,2013-03-03 05:32:00,
2013-03-03 00:42:00,34.0,29.0,30.01,West,267,0.0,-999.0,82,-99.99,,,-99.99,,2013-03-03 05:42:00,
2013-03-03 00:52:00,34.0,29.0,30.01,West,267,0.0,-999.0,83,-99.99,,,-99.99,,2013-03-03 05:52:00,
2013-03-03 01:02:00,33.0,29.0,30.01,West,267,0.0,-999.0,85,-99.99,,,-99.99,,2013-03-03 06:02:00,
2013-03-03 01:11:00,33.0,29.0,30.01,West,267,0.0,-999.0,85,-99.99,,,-99.99,,2013-03-03 06:11:00,
2013-03-03 01:21:00,33.0,29.0,30.01,West,267,0.0,-999.0,86,-99.99,,,-99.99,,2013-03-03 06:21:00,
2013-03-03 01:32:00,33.0,30.0,30.01,West,267,0.0,-999.0,87,-99.99,,,-99.99,,2013-03-03 06:32:00,
2013-03-03 01:42:00,33.0,30.0,30.01,West,267,0.0,-999.0,87,-99.99,,,-99.99,,2013-03-03 06:42:00,
2013-03-03 01:52:00,32.0,29.0,30.02,WSW,243,1.0,-999.0,87,-99.99,,,-99.99,,2013-03-03 06:52:00,
2013-03-03 02:01:00,32.0,29.0,30.02,WSW,244,1.0,-999.0,88,-99.99,,,-99.99,,2013-03-03 07:01:00,
2013-03-03 02:11:00,32.0,29.0,30.02,WSW,244,1.0,-999.0,88,-99.99,,,-99.99,,2013-03-03 07:11:00,
2013-03-03 02:21:00,32.0,29.0,30.02,WSW,242,1.0,-999.0,89,-99.99,,,-99.99,,2013-03-03 07:21:00,
2013-03-03 02:32:00,33.0,30.0,30.02,WSW,252,1.0,-999.0,88,-99.99,,,-99.99,,2013-03-03 07:32:00,
2013-03-03 02:42:00,33.0,30.0,30.02,WSW,252,1.0,-999.0,88,-99.99,,,-99.99,,2013-03-03 07:42:00,
2013-03-03 02:52:00,33.0,30.0,30.02,WSW,250,2.0,-999.0,87,-99.99,,,-99.99,,2013-03-03 07:52:00,
2013-03-03 03:01:00,34.0,30.0,30.01,West,261,2.0,-999.0,86,-99.99,,,-99.99,,2013-03-03 08:01:00,
2013-03-03 03:11:00,34.0,30.0,30.01,West,261,2.0,-999.0,86,-99.99,,,-99.99,,2013-03-03 08:11:00,
2013-03-03 03:21:00,34.0,30.0,30.01,SW,231,2.0,-999.0,86,-99.99,,,-99.99,,2013-03-03 08:21:00,
2013-03-03 03:31:00,34.0,30.0,30.01,West,261,1.0,-999.0,85,-99.99,,,-99.99,,2013-03-03 08:31:00,
2013-03-03 03:42:00,34.0,30.0,30.01,West,261,1.0,-999.0,85,-99.99,,,-99.99,,2013-03-03 08:42:00,
2013-03-03 03:54:00,33.0,29.0,30.01,SW,232,1.0,-999.0,85,-99.99,,,-99.99,,2013-03-03 08:54:00,
2013-03-03 04:01:00,33.0,29.0,30.01,WSW,243,2.0,-999.0,86,-99.99,,,-99.99,,2013-03-03 09:01:00,
2013-03-03 04:12:00,33.0,29.0,30.01,WSW,243,2.0,-999.0,86,-99.99,,,-99.99,,2013-03-03 09:12:00,
2013-03-03 04:21:00,33.0,30.0,30.01,WSW,252,2.0,-999.0,87,-99.99,,,-99.99,,2013-03-03 09:21:00,
2013-03-03 04:32:00,33.0,30.0,30.01,SW,225,2.0,-999.0,87,-99.99,,,-99.99,,2013-03-03 09:32:00,
2013-03-03 04:42:00,33.0,30.0,30.01,SW,225,2.0,-999.0,87,-99.99,,,-99.99,,2013-03-03 09:42:00,
2013-03-03 04:52:00,33.0,30.0,30.01,WSW,251,2.0,-999.0,87,-99.99,,,-99.99,,2013-03-03 09:52:00,
2013-03-03 05:01:00,33.0,30.0,30.01,WSW,241,2.0,-999.0,87,-99.99,,,-99.99,,2013-03-03 10:01:00,
2013-03-03 05:11:00,33.0,30.0,30.01,WSW,241,2.0,-999.0,87,-99.99,,,-99.99,,2013-03-03 10:11:00,
2013-03-03 05:21:00,33.0,30.0,30.01,West,275,2.0,-999.0,88,-99.99,,,-99.99,,2013-03-03 10:21:00,
2013-03-03 05:32:00,33.0,30.0,30.01,SW,217,3.0,-999.0,88,-99.99,,,-99.99,,2013-03-03 10:32:00,
2013-03-03 05:42:00,33.0,30.0,30.01,SW,217,3.0,-999.0,88,-99.99,,,-99.99,,2013-03-03 10:42:00,
2013-03-03 05:52:00,33.0,30.0,30.02,SW,227,2.0,-999.0,88,-99.99,,,-99.99,,2013-03-03 10:52:00,
2013-03-03 06:01:00,33.0,30.0,30.02,West,265,2.0,-999.0,88,-99.99,,,-99.99,,2013-03-03 11:01:00,
2013-03-03 06:11:00,33.0,30.0,30.02,West,265,2.0,-999.0,88,-99.99,,,-99.99,,2013-03-03 11:11:00,
2013-03-03 06:22:00,33.0,30.0,30.02,West,260,2.0,-999.0,88,-99.99,,,-99.99,,2013-03-03 11:22:00,
2013-03-03 06:32:00,33.0,30.0,30.03,SW,234,2.0,-999.0,88,-99.99,,,-99.99,,2013-03-03 11:32:00,
2013-03-03 06:42:00,33.0,30.0,30.03,SW,234,2.0,-999.0,88,-99.99,,,-99.99,,2013-03-03 11:42:00,
2013-03-03 06:53:00,33.0,30.0,30.03,WNW,283,2.0,-999.0,88,-99.99,,,-99.99,,2013-03-03 11:53:00,
2013-03-03 07:02:00,33.0,30.0,30.04,WSW,257,3.0,-999.0,88,-99.99,,,-99.99,,2013-03-03 12:02:00,
2013-03-03 07:11:00,33.0,30.0,30.04,WSW,257,3.0,-999.0,88,-99.99,,,-99.99,,2013-03-03 12:11:00,
2013-03-03 07:21:00,33.0,30.0,30.04,West,261,3.0,-999.0,88,-99.99,,,-99.99,,2013-03-03 12:21:00,
2013-03-03 07:32:00,34.0,31.0,30.04,SSW,196,2.0,-999.0,88,-99.99,,,-99.99,,2013-03-03 12:32:00,
2013-03-03 07:43:00,34.0,31.0,30.04,SSW,196,2.0,-999.0,88,-99.99,,,-99.99,,2013-03-03 12:43:00,
2013-03-03 07:53:00,34.0,31.0,30.04,SSW,192,2.0,-999.0,88,-99.99,,,-99.99,,2013-03-03 12:53:00,
2013-03-03 08:01:00,35.0,32.0,30.04,WNW,282,3.0,-999.0,88,-99.99,,,-99.99,,2013-03-03 13:01:00,
2013-03-03 08:11:00,35.0,32.0,30.04,WNW,282,3.0,-999.0,88,-99.99,,,-99.99,,2013-03-03 13:11:00,
2013-03-03 08:22:00,36.0,33.0,30.06,West,275,4.0,-999.0,87,-99.99,,,-99.99,,2013-03-03 13:22:00,
2013-03-03 08:32:00,38.0,34.0,30.06,WNW,302,5.0,-999.0,84,-99.99,,,-99.99,,2013-03-03 13:32:00,
2013-03-03 08:42:00,38.0,34.0,30.06,WNW,302,5.0,-999.0,84,-99.99,,,-99.99,,2013-03-03 13:42:00,
2013-03-03 08:52:00,39.0,34.0,30.06,West,279,5.0,-999.0,81,-99.99,,,-99.99,,2013-03-03 13:52:00,
2013-03-03 09:02:00,40.0,34.0,30.06,West,268,6.0,-999.0,78,-99.99,,,-99.99,,2013-03-03 14:02:00,
2013-03-03 09:11:00,40.0,34.0,30.06,West,268,6.0,-999.0,78,-99.99,,,-99.99,,2013-03-03 14:11:00,
2013-03-03 09:22:00,41.0,33.0,30.06,NW,304,9.0,-999.0,73,-99.99,,,-99.99,,2013-03-03 14:22:00,
2013-03-03 09:32:00,42.0,33.0,30.06,NW,317,7.0,-999.0,69,-99.99,,,-99.99,,2013-03-03 14:32:00,
2013-03-03 09:42:00,42.0,33.0,30.06,NW,317,7.0,-999.0,69,-99.99,,,-99.99,,2013-03-03 14:42:00,
2013-03-03 09:52:00,43.0,32.0,30.06,West,269,7.0,-999.0,64,-99.99,,,-99.99,,2013-03-03 14:52:00,
2013-03-03 10:02:00,43.0,31.0,30.06,NW,321,10.0,-999.0,62,-99.99,,,-99.99,,2013-03-03 15:02:00,
2013-03-03 10:11:00,43.0,31.0,30.06,NW,321,10.0,-999.0,62,-99.99,,,-99.99,,2013-03-03 15:11:00,
2013-03-03 10:22:00,43.0,30.0,30.06,NNW,334,7.0,-999.0,60,-99.99,,,-99.99,,2013-03-03 15:22:00,
2013-03-03 10:32:00,43.0,30.0,30.06,WNW,301,9.0,-999.0,59,-99.99,,,-99.99,,2013-03-03 15:32:00,
2013-03-03 10:42:00,43.0,30.0,30.06,WNW,301,9.0,-999.0,59,-99.99,,,-99.99,,2013-03-03 15:42:00,
2013-03-03 10:52:00,45.0,29.0,30.06,NW,306,9.0,-999.0,54,-99.99,,,-99.99,,2013-03-03 15:52:00,
2013-03-03 11:02:00,43.0,28.0,30.06,West,273,10.0,-999.0,55,-99.99,,,-99.99,,2013-03-03 16:02:00,
2013-03-03 11:12:00,43.0,28.0,30.06,West,273,10.0,-999.0,55,-99.99,,,-99.99,,2013-03-03 16:12:00,
2013-03-03 11:22:00,43.0,28.0,30.06,WNW,294,8.0,-999.0,55,-99.99,,,-99.99,,2013-03-03 16:22:00,
2013-03-03 11:32:00,44.0,29.0,30.06,West,262,7.0,-999.0,56,-99.99,,,-99.99,,2013-03-03 16:32:00,
2013-03-03 11:42:00,44.0,29.0,30.06,West,262,7.0,-999.0,56,-99.99,,,-99.99,,2013-03-03 16:42:00,
2013-03-03 11:52:00,44.0,28.0,30.06,West,269,8.0,-999.0,54,-99.99,,,-99.99,,2013-03-03 16:52:00,
2013-03-03 12:01:00,44.0,29.0,30.06,West,271,7.0,-999.0,55,-99.99,,,-99.99,,2013-03-03 17:01:00,
2013-03-03 12:11:00,44.0,29.0,30.06,NW,306,7.0,-999.0,55,-99.99,,,-99.99,,2013-03-03 17:11:00,
2013-03-03 12:22:00,44.0,29.0,30.06,NW,306,7.0,-999.0,55,-99.99,,,-99.99,,2013-03-03 17:22:00,
2013-03-03 12:32:00,44.0,28.0,30.05,SSW,200,9.0,-999.0,54,-99.99,,,-99.99,,2013-03-03 17:32:00,
2013-03-03 12:42:00,44.0,28.0,30.05,SSW,200,9.0,-999.0,54,-99.99,,,-99.99,,2013-03-03 17:42:00,
2013-03-03 12:52:00,44.0,28.0,30.05,SSW,203,8.0,-999.0,53,-99.99,,,-99.99,,2013-03-03 17:52:00,
2013-03-03 13:02:00,45.0,28.0,30.04,NNW,329,7.0,-999.0,52,-99.99,,,-99.99,,2013-03-03 18:02:00,
2013-03-03 13:11:00,45.0,28.0,30.04,NNW,329,7.0,-999.0,52,-99.99,,,-99.99,,2013-03-03 18:11:00,
2013-03-03 13:21:00,45.0,28.0,30.04,South,190,8.0,-999.0,52,-99.99,,,-99.99,,2013-03-03 18:21:00,
2013-03-03 13:32:00,44.0,28.0,30.03,SSW,202,9.0,-999.0,53,-99.99,,,-99.99,,2013-03-03 18:32:00,
2013-03-03 13:42:00,44.0,28.0,30.03,SSW,202,9.0,-999.0,53,-99.99,,,-99.99,,2013-03-03 18:42:00,
2013-03-03 13:52:00,45.0,29.0,30.02,WNW,285,8.0,-999.0,53,-99.99,,,-99.99,,2013-03-03 18:52:00,
2013-03-03 14:02:00,45.0,29.0,30.02,West,270,9.0,-999.0,54,-99.99,,,-99.99,,2013-03-03 19:02:00,
2013-03-03 14:11:00,45.0,29.0,30.02,West,270,9.0,-999.0,54,-99.99,,,-99.99,,2013-03-03 19:11:00,
2013-03-03 14:22:00,44.0,28.0,30.02,SSW,196,8.0,-999.0,54,-99.99,,,-99.99,,2013-03-03 19:22:00,
2013-03-03 14:32:00,45.0,29.0,30.02,SW,220,7.0,-999.0,54,-99.99,,,-99.99,,2013-03-03 19:32:00,
2013-03-03 14:42:00,45.0,29.0,30.02,SW,220,7.0,-999.0,54,-99.99,,,-99.99,,2013-03-03 19:42:00,
2013-03-03 14:52:00,45.0,29.0,30.02,WSW,254,9.0,-999.0,54,-99.99,,,-99.99,,2013-03-03 19:52:00,
2013-03-03 15:01:00,45.0,30.0,30.01,West,265,9.0,-999.0,55,-99.99,,,-99.99,,2013-03-03 20:01:00,
2013-03-03 15:11:00,45.0,30.0,30.01,West,265,9.0,-999.0,55,-99.99,,,-99.99,,2013-03-03 20:11:00,
2013-03-03 15:22:00,45.0,29.0,30.02,NW,304,8.0,-999.0,54,-99.99,,,-99.99,,2013-03-03 20:22:00,
2013-03-03 15:32:00,45.0,29.0,30.02,West,277,8.0,-999.0,54,-99.99,,,-99.99,,2013-03-03 20:32:00,
2013-03-03 15:42:00,45.0,29.0,30.02,West,277,8.0,-999.0,54,-99.99,,,-99.99,,2013-03-03 20:42:00,
2013-03-03 15:53:00,45.0,30.0,30.02,NW,311,9.0,-999.0,55,-99.99,,,-99.99,,2013-03-03 20:53:00,
2013-03-03 16:02:00,46.0,29.0,30.02,West,262,7.0,-999.0,52,-99.99,,,-99.99,,2013-03-03 21:02:00,
2013-03-03 16:12:00,46.0,29.0,30.02,West,262,7.0,-999.0,52,-99.99,,,-99.99,,2013-03-03 21:12:00,
2013-03-03 16:22:00,46.0,30.0,30.02,WNW,292,8.0,-999.0,54,-99.99,,,-99.99,,2013-03-03 21:22:00,
2013-03-03 16:32:00,46.0,29.0,30.01,WNW,284,7.0,-999.0,52,-99.99,,,-99.99,,2013-03-03 21:32:00,
2013-03-03 16:42:00,46.0,29.0,30.01,WNW,284,7.0,-999.0,52,-99.99,,,-99.99,,2013-03-03 21:42:00,
2013-03-03 16:52:00,47.0,30.0,30.01,SW,216,7.0,-999.0,51,-99.99,,,-99.99,,2013-03-03 21:52:00,
2013-03-03 17:02:00,47.0,29.0,30.01,West,261,8.0,-999.0,49,-99.99,,,-99.99,,2013-03-03 22:02:00,
2013-03-03 17:11:00,47.0,29.0,30.01,West,261,8.0,-999.0,49,-99.99,,,-99.99,,2013-03-03 22:11:00,
2013-03-03 17:22:00,47.0,29.0,30.01,WSW,240,6.0,-999.0,49,-99.99,,,-99.99,,2013-03-03 22:22:00,
2013-03-03 17:32:00,47.0,29.0,30.02,West,260,7.0,-999.0,50,-99.99,,,-99.99,,2013-03-03 22:32:00,
2013-03-03 17:42:00,47.0,29.0,30.02,West,260,7.0,-999.0,50,-99.99,,,-99.99,,2013-03-03 22:42:00,
2013-03-03 17:52:00,47.0,29.0,30.02,WNW,282,6.0,-999.0,50,-99.99,,,-99.99,,2013-03-03 22:52:00,
2013-03-03 18:01:00,46.0,28.0,30.03,SSW,202,5.0,-999.0,50,-99.99,,,-99.99,,2013-03-03 23:01:00,
2013-03-03 18:11:00,46.0,28.0,30.03,SSW,202,5.0,-999.0,50,-99.99,,,-99.99,,2013-03-03 23:11:00,
2013-03-03 18:21:00,45.0,28.0,30.04,WNW,284,7.0,-999.0,51,-99.99,,,-99.99,,2013-03-03 23:21:00,
2013-03-03 18:32:00,45.0,28.0,30.04,SW,234,6.0,-999.0,52,-99.99,,,-99.99,,2013-03-03 23:32:00,
2013-03-03 18:42:00,45.0,28.0,30.04,SW,234,6.0,-999.0,52,-99.99,,,-99.99,,2013-03-03 23:42:00,
2013-03-03 18:52:00,44.0,28.0,30.05,West,277,4.0,-999.0,54,-99.99,,,-99.99,,2013-03-03 23:52:00,
2013-03-03 19:02:00,43.0,28.0,30.06,West,275,2.0,-999.0,56,-99.99,,,-99.99,,2013-03-04 00:02:00,
2013-03-03 19:11:00,43.0,28.0,30.06,West,275,2.0,-999.0,56,-99.99,,,-99.99,,2013-03-04 00:11:00,
2013-03-03 19:22:00,42.0,29.0,30.07,WNW,282,2.0,-999.0,59,-99.99,,,-99.99,,2013-03-04 00:22:00,
2013-03-03 19:32:00,42.0,30.0,30.08,WNW,294,1.0,-999.0,61,-99.99,,,-99.99,,2013-03-04 00:32:00,
2013-03-03 19:42:00,42.0,30.0,30.08,WNW,294,1.0,-999.0,61,-99.99,,,-99.99,,2013-03-04 00:42:00,
2013-03-03 19:52:00,41.0,29.0,30.08,West,281,1.0,-999.0,63,-99.99,,,-99.99,,2013-03-04 00:52:00,
2013-03-03 20:01:00,40.0,29.0,30.09,WNW,292,1.0,-999.0,65,-99.99,,,-99.99,,2013-03-04 01:01:00,
2013-03-03 20:12:00,40.0,29.0,30.09,WNW,292,1.0,-999.0,65,-99.99,,,-99.99,,2013-03-04 01:12:00,
2013-03-03 20:22:00,40.0,30.0,30.09,WNW,293,0.0,-999.0,67,-99.99,,,-99.99,,2013-03-04 01:22:00,
2013-03-03 20:32:00,39.0,29.0,30.10,WNW,293,0.0,-999.0,68,-99.99,,,-99.99,,2013-03-04 01:32:00,
2013-03-03 20:42:00,39.0,29.0,30.10,WNW,293,0.0,-999.0,68,-99.99,,,-99.99,,2013-03-04 01:42:00,
2013-03-03 20:52:00,38.0,29.0,30.11,WNW,293,0.0,-999.0,71,-99.99,,,-99.99,,2013-03-04 01:52:00,
2013-03-03 21:01:00,37.0,29.0,30.11,WNW,293,0.0,-999.0,73,-99.99,,,-99.99,,2013-03-04 02:01:00,
2013-03-03 21:11:00,37.0,29.0,30.11,WNW,293,0.0,-999.0,73,-99.99,,,-99.99,,2013-03-04 02:11:00,
2013-03-03 21:22:00,36.0,29.0,30.12,WNW,293,0.0,-999.0,74,-99.99,,,-99.99,,2013-03-04 02:22:00,
2013-03-03 21:32:00,35.0,29.0,30.13,WNW,293,0.0,-999.0,77,-99.99,,,-99.99,,2013-03-04 02:32:00,
2013-03-03 21:42:00,35.0,29.0,30.13,WNW,293,0.0,-999.0,77,-99.99,,,-99.99,,2013-03-04 02:42:00,
2013-03-03 21:52:00,34.0,28.0,30.13,WNW,293,0.0,-999.0,79,-99.99,,,-99.99,,2013-03-04 02:52:00,
2013-03-03 22:02:00,34.0,28.0,30.14,WNW,293,0.0,-999.0,80,-99.99,,,-99.99,,2013-03-04 03:02:00,
2013-03-03 22:11:00,34.0,28.0,30.14,WNW,293,0.0,-999.0,80,-99.99,,,-99.99,,2013-03-04 03:11:00,
2013-03-03 22:22:00,33.0,28.0,30.14,WNW,293,0.0,-999.0,81,-99.99,,,-99.99,,2013-03-04 03:22:00,
2013-03-03 22:32:00,33.0,28.0,30.14,WNW,293,0.0,-999.0,82,-99.99,,,-99.99,,2013-03-04 03:32:00,
2013-03-03 22:42:00,32.0,28.0,30.14,WNW,293,0.0,-999.0,84,-99.99,,,-99.99,,2013-03-04 03:42:00,
2013-03-03 22:53:00,32.0,28.0,30.14,WNW,293,0.0,-999.0,84,-99.99,,,-99.99,,2013-03-04 03:53:00,
2013-03-03 23:01:00,32.0,28.0,30.14,WNW,293,0.0,-999.0,85,-99.99,,,-99.99,,2013-03-04 04:01:00,
2013-03-03 23:11:00,32.0,28.0,30.14,WNW,293,0.0,-999.0,85,-99.99,,,-99.99,,2013-03-04 04:11:00,
2013-03-03 23:22:00,32.0,28.0,30.14,WNW,293,0.0,-999.0,85,-99.99,,,-99.99,,2013-03-04 04:22:00,
2013-03-03 23:32:00,31.0,27.0,30.14,WNW,293,0.0,-999.0,86,-99.99,,,-99.99,,2013-03-04 04:32:00,
2013-03-03 23:42:00,31.0,27.0,30.14,WNW,293,0.0,-999.0,86,-99.99,,,-99.99,,2013-03-04 04:42:00,
2013-03-03 23:52:00,31.0,28.0,30.14,WNW,293,0.0,-999.0,87,-99.99,,,-99.99,,2013-03-04 04:52:00,